Location: Madden
(51.3728°N, 114.3297°W)
Time: 12:46:19
(UTC+00:00)

CUTE-I - Visible Passes

Search period start: 08 December 2023 00:00
Search period end: 18 December 2023 00:00
Orbit: 808 x 822 km, 98.7° (Epoch: 07 December)

Date Brightness Start Highest point End Pass type
(mag) Time Alt. Az. Time Alt. Az. Time Alt. Az.
08 Dec ? 00:23:53 10° SSE 00:29:05 59° ENE 00:34:20 10° N visible
08 Dec ? 02:05:08 10° SSW 02:09:27 25° W 02:13:49 10° NW visible
08 Dec ? 12:36:10 10° NE 12:39:18 16° E 12:42:26 10° ESE visible
08 Dec ? 14:14:41 10° NNE 14:20:05 87° ESE 14:25:28 10° SSW visible
09 Dec ? 00:02:04 10° SE 00:07:00 41° ENE 00:12:00 10° N visible
09 Dec ? 01:42:11 10° SSW 01:47:03 36° W 01:51:59 10° NNW visible
09 Dec ? 13:52:31 10° NNE 13:57:51 60° ESE 14:03:09 10° S visible
10 Dec ? 01:19:32 10° S 01:24:44 54° W 01:29:59 10° NNW visible
10 Dec ? 13:30:29 10° NNE 13:35:33 41° E 13:40:35 10° SSE visible
11 Dec ? 00:57:09 10° SSE 01:02:29 79° WSW 01:07:51 10° NNW visible
11 Dec ? 02:40:43 10° WSW 02:43:21 14° W 02:46:00 10° NW visible
11 Dec ? 13:08:36 10° NE 13:13:10 28° E 13:17:44 10° SSE visible
11 Dec ? 14:48:14 10° N 14:53:28 54° WNW 14:58:40 10° SW visible
12 Dec ? 00:35:01 10° SSE 00:40:18 72° ENE 00:45:38 10° NNW visible
12 Dec ? 02:16:55 10° SW 02:20:50 21° W 02:24:47 10° NW visible
12 Dec ? 12:46:57 10° NE 12:50:43 19° E 12:54:28 10° SE visible
12 Dec ? 14:25:57 10° NNE 14:31:20 78° WNW 14:36:41 10° SSW visible
13 Dec ? 00:13:04 10° SE 00:18:10 49° ENE 00:23:20 10° N visible
13 Dec ? 01:53:46 10° SSW 01:58:23 30° W 02:03:05 10° NNW visible
13 Dec ? 12:25:54 10° ENE 12:28:11 13° E 12:30:27 10° ESE visible
13 Dec ? 14:03:44 10° NNE 14:09:08 73° ESE 14:14:30 10° S visible
14 Dec ? 01:30:58 10° S 01:36:01 44° W 01:41:09 10° NNW visible
14 Dec ? 13:41:38 10° NNE 13:46:52 50° E 13:52:03 10° S visible
15 Dec ? 01:08:27 10° S 01:13:44 66° WSW 01:19:04 10° NNW visible
15 Dec ? 02:53:25 10° W 02:54:47 11° W 02:56:10 10° WNW visible
15 Dec ? 13:19:39 10° NNE 13:24:31 34° E 13:29:21 10° SSE visible
16 Dec ? 00:46:11 10° SSE 00:51:30 86° ENE 00:56:53 10° NNW visible
16 Dec ? 02:28:50 10° SW 02:32:13 17° W 02:35:37 10° NW visible
16 Dec ? 12:57:51 10° NE 13:02:05 23° E 13:06:19 10° SE visible
16 Dec ? 14:37:12 10° N 14:42:32 65° WNW 14:47:50 10° SSW visible
17 Dec ? 00:24:08 10° SSE 00:29:21 60° ENE 00:34:38 10° N visible
17 Dec ? 02:05:24 10° SSW 02:09:44 25° W 02:14:06 10° NW visible
17 Dec ? 12:36:26 10° NE 12:39:36 16° E 12:42:45 10° ESE visible
17 Dec ? 14:14:57 10° NNE 14:20:22 88° ESE 14:25:45 10° SSW visible
